Location: L�Ave Maria
(50.7161°N, 1.5911°E)
Time: 13:13:38
(UTC+00:00)

Cosmos 1331 Rocket - Pass Details

Date: 10 July 2020
Orbit: 749 x 778 km, 74.0° (Epoch: 07 August)

Event Time Altitude Azimuth Distance (km) Brightness Sun altitude
Rises 23:23:04 0° 336° (NNW) 3,273 8.8 -16.8°
Reaches altitude 10° 23:25:28 10° 337° (NNW) 2,342 7.7 -16.8°
Maximum altitude 23:30:49 81° 65° (ENE) 794 4.0 -16.9°
Enters shadow 23:33:50 27° 151° (SSE) 1,476 4.9 -17.0°
